Location: Cantaing
(50.1487°N, 3.1675°E)
Time: 06:51:30
(UTC+00:00)

Okean 1-7 - Pass Details

Date: 14 January 2026
Orbit: 566 x 588 km, 82.5° (Epoch: 10 February)

Event Time Altitude Azimuth Distance (km) Brightness Sun altitude
Rises 06:09:38 0° 351° (N) 2,781 6.2 -14.1°
Reaches altitude 10° 06:11:50 10° 353° (N) 1,881 5.3 -13.8°
Maximum altitude 06:15:58 75° 79° (ENE) 598 3.1 -13.2°
Drops below altitude 10° 06:20:06 10° 165° (SSE) 1,876 6.0 -12.5°
Sets 06:22:18 0° 167° (SSE) 2,773 6.9 -12.2°
